Regional Weather Roundup
Issued by NWS

Home | Current Version | Previous Version | Text Only | Print | Product List | Glossary On
Versions: 1 2 3 4 5 6 7 8 9 10 11 12 13 14 15 16 17 18 19 20 21 22 23 24 25 26 27 28 29 30 31 32 33 34 35 36 37 38 39 40 41 42 43 44 45 46 47 48 49 50
000
ASUS43 KMPX 170110
RWRMN
WEATHER ROUNDUP FOR MINNESOTA
NATIONAL WEATHER SERVICE TWIN CITIES/CHANHASSEN MN
700 PM CST TUE JAN 16 2018


NOTE: "FAIR" INDICATES FEW OR NO CLOUDS BELOW 12,000 FEET WITH NO
SIGNIFICANT WEATHER AND/OR OBSTRUCTIONS TO VISIBILITY. N/A MEANS
CURRENT SKY AND/OR WEATHER CONDITIONS ARE NOT AVAILABLE.

MNZ060>063-068>070-170200-
   Twin Cities Metro

CITY           SKY/WX    TMP DP  RH WIND       PRES   REMARKS
TWIN CITIES    FAIR       2  -2  83 SW6       30.60F WCI  -9
ST PAUL        FAIR       3  -4  72 W7        30.61F WCI  -9
CRYSTAL        FAIR       2  -6  69 SW6       30.58F WCI  -9
BLAINE         CLEAR      3  -2  78 SW5       30.57F WCI  -6
LAKEVILLE      FAIR      -2  -6  84 W6        30.59F WCI -14
EDEN PRAIRIE   FAIR       0  -6  76 SW7       30.58F WCI -13
SOUTH ST PAUL  FAIR       2  -4  73 CALM      30.60F
LAKE ELMO      FAIR       3  -4  72 W6        30.59S WCI  -8
$$
MNZ001>005-007-008-013>017-022>024-027-028-170200-
   Northwest Minnesota

CITY           SKY/WX    TMP DP  RH WIND       PRES   REMARKS
BEMIDJI        FAIR       6 -11  45 SW9       30.41F WCI  -8
HALLOCK        FAIR       1  -4  78 S17       30.36F WCI -19
ROSEAU         FAIR       1  -6  71 SW15G21   30.34F WCI -18
WARROAD        FAIR       1  -8  66 SW15      30.33F WCI -18
THIEF RVR FALL FAIR       1  -6  72 S17       30.41F WCI -19
CROOKSTON      FAIR       3  -2  78 S20       30.44F WCI -18
FOSSTON        FAIR       0  -9  65 S16       30.43F WCI -21
DETROIT LAKES  FAIR       1  -6  71 S7        30.48F WCI -11
MOORHEAD       FAIR       3  -6  66 S6        30.51F WCI  -8
PARK RAPIDS    FAIR       2 -10  57 SW8       30.44F WCI -12
MAHNOMEN       FAIR       1  -7  68 S16       30.45F WCI -19
$$
MNZ006-009>011-018-025>026-170200-
   North Central Minnesota

CITY           SKY/WX    TMP DP  RH WIND       PRES   REMARKS
BAUDETTE       FAIR       4  -9  55 SW13      30.33F WCI -13
FLAG ISLAND    FAIR       3  -8  60 SW16      30.28F WCI -16
INTL FALLS     FAIR       5  -7  57 SW9       30.36F WCI  -9
WASKISH        FAIR       7  -6  56 SW6       30.38F WCI  -3
BIG FORK       CLOUDY     7  -4  61 S7        30.40F WCI  -5
LONGVILLE      FAIR       5  -4  66 SW5       30.44F WCI  -4
GRAND RAPIDS   FAIR       4  -3  73 S5        30.43F WCI  -5
CRANE LAKE     FAIR       7  -2  66 S5        30.39F WCI  -2
ORR            FAIR       7  -4  61 SW5       30.35F WCI  -2
COOK           MOCLDY     7   0  72 SW7       30.39F WCI  -5
WALKER         MOCLDY     6 -10  47 SW7       30.43F WCI  -6
$$
MNZ012-019>021-037-170200-
   Northeast Minnesota

CITY           SKY/WX    TMP DP  RH WIND       PRES   REMARKS
DULUTH         FAIR       5  -1  76 W13       30.41F WCI -12
ELY            FAIR       5   1  85 SW8       30.37S WCI  -8
HIBBING        MOCLDY     2  -3  80 VRB3      30.41F
EVELETH        FAIR       4  -4  70 SW8       30.41F WCI -10
DULUTH HARBOR  FAIR      10   1  67 SW10      30.49F WCI  -3
TWO HARBORS    MOCLDY    10   1  67 W9        30.40F WCI  -2
SILVER BAY     MOCLDY     9   1  72 W3        30.38F
GRAND MARAIS     N/A     14   4  64 W8        30.40F WCI   3
G MARAIS ARPRT FAIR       3  -6  66 W7        30.28F WCI  -9
$$
MNZ029>031-032-039>041-046>048-054>057-064-170200-
   West Central Minnesota

CITY           SKY/WX    TMP DP  RH WIND       PRES   REMARKS
FERGUS FALLS   FAIR       0  -6  78 S7        30.57S WCI -13
WHEATON        CLOUDY     7   1  78 S7        30.56S WCI  -5
MORRIS         CLOUDY     3  -2  78 S8        30.52F WCI -10
ALEXANDRIA     FAIR       1  -5  75 CALM      30.52S
ELBOW LAKE     FAIR       1  -4  78 S8        30.52F HAZE    WCI -13
WADENA         FAIR       0  -8  71 SW6       30.48F WCI -12
GLENWOOD       FAIR       0  -4  85 SW5       30.53F WCI -10
APPLETON       CLOUDY     3  -2  78 S6        30.56F WCI  -8
BENSON         CLOUDY     1  -4  78 SW5       30.55F WCI  -8
ORTONVILLE     CLOUDY     5  -2  72 S5        30.54F WCI  -4
MADISON        CLOUDY     3  -2  78 S8        30.56F WCI -10
WILLMAR        FAIR       0  -6  78 CALM      30.58F
$$
MNZ033>034-036-042>043-049>051-058-059-170200-
   Central Minnesota

CITY           SKY/WX    TMP DP  RH WIND       PRES   REMARKS
ST CLOUD       FAIR       0  -6  76 SW6       30.55F WCI -12
SAUK CENTRE      N/A      0  -5  79 W5        30.53F WCI -10
PAYNESVILLE    FAIR      -2  -5  86 SW5       30.56F WCI -12
AITKIN         FAIR       3  -6  66 SW8       30.46F WCI -10
PINE RIVER     FAIR       1  -6  71 SW3       30.48F
BRAINERD       FAIR       3  -6  66 SW5       30.49F WCI  -6
STAPLES        FAIR       1  -6  71 SW3       30.49F
LONG PRAIRIE   FAIR       1  -4  78 SW3       30.53R
LITTLE FALLS   FAIR       3  -8  60 SW3       30.53F
LITCHFIELD     FAIR       0  -4  85 CALM      30.57F
BUFFALO        FAIR       1  -4  78 S5        30.58F WCI  -8
MAPLE LAKE     FAIR       3  -1  83 MISG      30.57F
HUTCHINSON     FAIR      -1  -4  84 W5        30.59F WCI -11
$$
MNZ037-044-045-052-053-170200-
   East Central Minnesota

CITY           SKY/WX    TMP DP  RH WIND       PRES   REMARKS
PRINCETON      FAIR       0  -4  85 SW3       30.55S
MORA           FAIR       3  -4  72 SW5       30.54F WCI  -6
CAMBRIDGE        N/A     -2  -9  71 CALM      30.56F
RUSH CITY      FAIR       1  -5  74 SW6       30.55F WCI -10
MOOSE LAKE     FAIR       5  -4  66 SW3       30.47F
HINCKLEY       FAIR       1  -4  78 S5        30.51F WCI  -8
CLOQUET        MOCLDY     5  -2  72 SW6       30.43F WCI  -6
MCGREGOR       FAIR       3   0  85 SW3       30.47F
$$
MNZ071>073-080-081-089-090-097-098-170200-
   Southwest Minnesota

CITY           SKY/WX    TMP DP  RH WIND       PRES   REMARKS
MONTEVIDEO     CLOUDY     0  -6  78 SW6       30.58F WCI -12
GRANITE FALLS  CLOUDY    -2  -6  82 S8        30.60F WCI -16
CANBY          CLOUDY     7   0  75 W6        30.57F WCI  -4
MARSHALL       CLOUDY     2  -2  83 SW3       30.59F
REDWOOD FALLS  CLOUDY     0  -5  79 SW5       30.60F WCI -10
OLIVIA         CLOUDY     0  -6  78 S3        30.59F
PIPESTONE      CLOUDY     0  -4  85 W5        30.54F WCI -10
WINDOM         CLOUDY     1 -11  55 SW3       30.58S
WORTHINGTON    CLOUDY     1  -3  83 SW8       30.57F WCI -13
JACKSON        CLOUDY     1  -4  78 SW6       30.58S WCI -10
SLAYTON        CLOUDY     2  -2  83 W7        30.56F WCI -10
$$
MNZ065>067-074>077-082>085-091>093-170200-
   South Central Minnesota

CITY           SKY/WX    TMP DP  RH WIND       PRES   REMARKS
MANKATO        FAIR      -1  -5  82 W6        30.62S WCI -13
NEW ULM        CLOUDY    -4  -9  77 W5        30.61S WCI -15
ST JAMES       CLOUDY     0  -4  85 CALM      30.62F
FAIRMONT       CLOUDY    -2  -6  83 S5        30.61F WCI -12
GLENCOE        FAIR       0  -4  85 SW5       30.58F WCI -10
FARIBAULT      FAIR      -2  -6  84 CALM      30.59F
OWATONNA       FAIR      -4  -8  84 SW7       30.59F WCI -18
WASECA         FAIR      -2  -8  78 W6        30.61F WCI -14
ALBERT LEA     FAIR      -2  -8  78 CALM      30.59F
$$
MNZ078>079-086>088-094>096-170200-
   Southeast Minnesota

CITY           SKY/WX    TMP DP  RH WIND       PRES   REMARKS
ROCHESTER      FAIR      -3  -6  87 W8        30.56F WCI -18
RED WING       FAIR       0  -8  71 CALM      30.60F
STANTON        FAIR      -5 -10  80 SW7       30.59F WCI -19
DODGE CENTER   FAIR      -6  -9  84 SW6       30.56F WCI -18
WINONA         FAIR       9   1  72 NW6       30.61S WCI  -1
AUSTIN         FAIR       0  -6  78 W3        30.58F
PRESTON        FAIR      -2  -5  84 W7        30.57S WCI -15
$$
ABBREVIATIONS USED IN REMARKS
   TC - TEMPERATURES IN CELSIUS
  WCI - WIND CHILL INDEX
   HX - HEAT INDEX
  VSB - VISIBILITY
$$



USA.gov is the U.S. government's official web portal to all federal, state and local government web resources and services.